SL-16 DEB, 39849

Orbit data source: Space-Track

SL-16 DEB, 39849 is space debris in LEO originally from a launch on Fri, 25 Dec 1992 UTC launched from the Tyuratam Missile And Space Complex (TTMTR). Debris objects in space refer to the collection of defunct objects orbiting the Earth. Examples of debris include non-operational satellites, rocket bodies, and fragments generated from explosions, collisions, or faulty payload assembly.

Loading next visibility...
Identifier
39849, 1992-093LB
Orbit
LEO
Country
Flag of CISCIS
Related business
Manufacturer
Unknown
Mission
Spacecraft
Bus & Motor
Unknown
Mass
Unknown
Launch date (UTC)
1992-12-25 (33 years ago)
Launch vehicle
Unknown
Launch site
Tyuratam Missile And Space Complex (TTMTR)
Object type
Payload
Rocket body
Debris
Shape & HBR
Unknown shape, 0.1 m
Radar Cross Section
Small (<0.1 m²)

Expand to show TLE details & history
Last TLE update: 4 days ago

TLE from 4 days ago
0 SL-16 DEB
1 39849U 92093LB  25346.96792933  .00000980  00000-0  60963-3 0  9998
2 39849  70.8669 244.4622 0081110 138.9213 221.8050 14.05867176590932
Epoch: 2025-12-12T23:13Z
TLE epoch observation values (Epoch: 2025-12-12T23:13:49.094Z)
Latitude
-0.00005°
Longitude
174.10568°
Altitude
919.991 km
Speed
7.37 km/s
True Right ascension
16h 17m 50s
True Declination
0° 00' 00"
Sunlit
Object was in daylight at epoch
Visualization orbit readout
Latitude
Unknown
Longitude
Unknown
Altitude
Unknown
Speed
Unknown
Apparent Right ascension
Unknown
Apparent Declination
Unknown
Sunlit
N/A
Visualization observer readout
Local Sidereal Time
18:31:52
Azimuth
Unknown
Elevation
Unknown
Doppler factor
Unknown
Orbital elements
Apogee altitude
930.297 km
Perigee altitude
812.694 km
Semi-major axis
7,249.633 km
Eccentricity
0.00811
Inclination
70.8669°
RAAN
244.4622°
Arg. of periapsis
138.9213°
True anomaly
221.19009°
Mean anomaly
221.805°
Eccentric anomaly
221.49708°
Mean motion
3.51616 °/min
Orbital period
102.38 mins
BSTAR
0.00060963
Loading maneuver chart data...
Computing Atmospheric mass density...
Loading historical data...
Loading historical data...
Loading historical data...
Loading historical data...
Loading historical data...
Loading historical data...
Loading historical data...

Documentation

Showing up to 5 results
|